Location: Hobi?a Gr?di?te
(45.4833°N, 22.7833°E)
Time: 11:14:41
(UTC+00:00)

Cosmos 1455 Rocket - Pass Details

Date: 28 January 2023
Orbit: 603 x 628 km, 82.5° (Epoch: 20 March)

Event Time Altitude Azimuth Distance (km) Brightness Sun altitude
Rises 15:56:13 0° 352° (N) 2,896 6.4 -5.2°
Reaches altitude 10° 15:58:28 10° 354° (N) 1,981 5.5 -5.6°
Maximum altitude 16:02:50 75° 80° (E) 636 3.0 -6.3°
Drops below altitude 10° 16:07:10 10° 167° (SSE) 1,951 5.7 -7.0°
Sets 16:09:22 0° 169° (SSE) 2,847 6.6 -7.4°
